Regional Weather Roundup
Issued by NWS State College, PA

Home | Current Version | Previous Version | Text Only | Print | Product List | Glossary On
Versions: 1 2 3 4 5 6 7 8 9 10 11 12 13 14 15 16 17 18 19 20 21 22 23 24 25 26 27 28 29 30 31 32 33 34 35 36 37 38 39 40 41 42 43 44 45 46 47 48 49 50
000
ASUS41 KCTP 071810
RWRCTP

REGIONAL WEATHER ROUNDUP
NATIONAL WEATHER SERVICE STATE COLLEGE PA
200 PM EDT TUE JUL 07 2015

Note: "fair" indicates few or no clouds below 12,000 feet with no
significant weather and/or obstructions to visibility.

* = STATION THAT DOES NOT REPORT PRECIPITATION /E.G. RAIN...SNOW...ETC/
    THUNDER OR FOG.

PAZ002>004-007>009-013>016-020>023-029>032-071900-
WESTERN PENNSYLVANIA

CITY           SKY/WX    TMP DP  RH WIND       PRES   REMARKS
ERIE           PTSUNNY   85  68  56 S14       29.87F
MEADVILLE      LGT RAIN  81  67  62 S13G22    29.94F
FRANKLIN*      MOSUNNY   81  68  65 SW10G21   29.98F
NEW CASTLE     MOCLDY    84  73  69 S8        29.95F
BEAVER COUNTY  MOSUNNY   82  70  65 S13G20    29.98F
BUTLER*        PTSUNNY   82  70  65 SW8       30.00F
PITTSBURGH INT PTSUNNY   83  68  60 SW16      29.98F
PITTSBURGH     MOSUNNY   83  66  56 SW12G23   29.99F
INDIANA*       PTSUNNY   82  70  65 SW13      30.05F
LATROBE        MOSUNNY   82  70  65 SW12G23   30.03F
WASHINGTON CO* NOT AVBL
$$

PAZ004>006-010>012-017>019-024>028-033>037-041-042-045-046-049>053-071900-
CENTRAL PENNSYLVANIA

CITY           SKY/WX    TMP DP  RH WIND       PRES   REMARKS
BRADFORD       MOSUNNY   79  62  56 W9G20     30.00F
DUBOIS         MOSUNNY   82  65  56 SW15      30.01F
CLEARFIELD     MOSUNNY   82  66  58 SW12      30.01F
JOHNSTOWN      SUNNY     80  62  54 SW14      30.07F
ALTOONA        MOSUNNY   83  66  56 SW8       30.04F
STATE COLLEGE  PTSUNNY   81  68  65 SW10G16   30.01F
WILLIAMSPORT   MOSUNNY   84  66  54 VRB3      29.96F
SELINSGROVE    SUNNY     84  69  60 VRB6      29.99F
FT INDIANTOWN  MOSUNNY   83  71  65 SW13      30.00F
CAPITAL CITY   SUNNY     84  68  58 W7        30.00F
HARRISBURG     MOSUNNY   83  68  60 W7        30.00F
YORK           MOSUNNY   83  69  62 W5        30.02F
$$

PAZ038>040-043-044-047-048-054-055-060>062-067>071-071900-
EASTERN PENNSYLVANIA

CITY           SKY/WX    TMP DP  RH WIND       PRES   REMARKS
SCRANTON       PTSUNNY   82  69  64 SW13      29.99F
MOUNT POCONO   LGT RAIN  71  67  87 S6        30.05F
ALLENTOWN      PTSUNNY   82  71  69 SW9       29.99F
QUAKERTOWN*    PTCLDY    84  72  65 SW5       30.01F
READING        MOSUNNY   86  70  58 SW6       29.98F
LANCASTER      PTSUNNY   84  71  65 SW13      30.01S
COATESVILLE    PTCLDY    82  73  74 W6        30.03F
POTTSTOWN      MOSUNNY   84  73  69 SW8       30.02S
BLUE BELL      MOSUNNY   86  72  62 SW3       29.99F
DOYLESTOWN     MOSUNNY   85  69  58 S6        29.99F
WILLOW GROVE   NOT AVBL
NORTH PHILA    PTSUNNY   87  67  51 SW10      30.00F
PHILADELPHIA   MOSUNNY   89  69  51 SW15      30.00F
$$


USA.gov is the U.S. government's official web portal to all federal, state and local government web resources and services.